Location: ?????????
(54.7630°N, 39.4991°E)
Time: 07:09:49
(UTC+00:00)

IDEFIX/ARIANE 42P - Pass Details

Date: 14 April 2026
Orbit: 780 x 797 km, 98.6° (Epoch: 12 May)

Event Time Altitude Azimuth Distance (km) Brightness Sun altitude
Rises 22:38:06 0° 19° (NNE) 3,280 7.2 -23.6°
Reaches altitude 10° 22:40:33 10° 26° (NNE) 2,348 6.1 -23.5°
Maximum altitude 22:45:28 43° 98° (E) 1,101 3.3 -23.2°
Enters shadow 22:47:03 33° 140° (SE) 1,290 3.4 -23.1°
